ECHOSTAR 21 (42749 NORAD) Tracking and Keplerian Element Data

This shows tracking and keplerian element data for the satellite.

Feedback or suggestion? Click here.




ElementValue
Catalog42749
NameECHOSTAR 21
Epoch Orbit725
Epoch Day145.76781167
Epoch Year2019
RAAN314.9306
Inclination6.258
Eccentricity0.0002272
Argument of Perigee122.1832
Mean Anonmoly92.6173
Mean Motion1.00274116
Decay Rate5.5E-07
L11 42749U 17032A 19145.76781167 .00000055 00000-0 00000+0 0 9991
L22 42749 6.2580 314.9306 0002272 122.1832 92.6173 1.00274116 7251

Live tracking and technical data element details for ECHOSTAR 21 (NORAD 42749). ECHOSTAR 21 can be tracked NOW for your location showing map with azimuth and elevation plus other details from your city location.

Track the satellite on the map from your city or location and see movement details for azimuth, elevation, latitude, longitude, range, height, and movement on the map or in text.







IsCatalogInMostPopularTable: catalog: 42749, numindb: 240
Update: records affected: 1



GetName: 42749 ECHOSTAR 21

Hit Count: updated at: Sun, 26 May 2019 19:05:40 GMT